Lapse_Rate
6.3 6.1 6.3 6.3 6.3 5.9 5.8 5.4 5.6 5.5 5.6 5.6 5.5 5.8 5.7 5.4 5.5 5.6 5.5 5.4 5.4 5.5
6.1 6.1 6.0 6.0 6.1 6.0 5.8 5.6 5.8 5.7 5.8 5.7 5.8 5.6 5.6 5.5 5.8 5.8 5.8 5.5 5.3 5.4
6.0 6.2 6.1 6.0 5.9 6.0 6.2 6.3 5.9 5.9 5.9 5.7 5.7 5.8 5.6 5.5 5.9 6.1 6.0 5.8 5.8 5.9
6.2 6.0 5.9 5.9 5.9 5.8 5.9 6.0 5.8 5.9 5.9 5.9 5.7 5.9 5.8 5.8 6.0 5.9 6.0 6.0 6.0 6.3
6.4 6.3 6.2 5.9 5.9 6.0 5.9 6.0 6.1 6.0 5.8 5.8 5.8 6.0 6.1 6.1 6.3 6.1 6.0 6.0 6.1 6.3
6.4 6.4 6.5 6.4 6.3 6.2 6.0 5.9 6.0 6.1 6.0 6.0 6.0 6.0 6.0 6.2 6.1 6.0 6.0 6.1 6.3 6.5
6.4 6.5 6.6 6.6 6.6 6.6 6.4 6.3 6.1 6.1 6.2 6.2 6.2 6.2 6.2 6.2 6.2 6.2 6.3 6.5 6.5 6.6
6.9 6.7 6.5 6.5 6.4 6.4 6.4 6.3 6.2 6.2 6.2 6.2 6.1 6.2 6.3 6.2 6.3 6.4 6.5 6.6 6.8 6.9
6.8 6.8 6.7 6.6 6.5 6.4 6.3 6.2 6.1 6.1 6.1 6.0 6.0 6.1 6.2 6.3 6.3 6.4 6.5 6.8 7.0 7.0
6.7 6.7 6.5 6.5 6.5 6.4 6.2 6.1 6.1 6.0 6.0 5.9 6.1 6.2 6.2 6.2 6.3 6.4 6.5 6.6 6.8 6.9
6.5 6.3 6.3 6.2 6.3 6.3 6.2 6.0 6.0 6.1 6.1 6.0 6.0 6.1 6.1 6.2 6.3 6.3 6.5 6.6 6.7 6.8
6.3 6.4 6.2 6.2 6.2 6.3 6.3 6.1 6.1 6.2 6.1 6.0 6.1 6.1 6.2 6.2 6.3 6.3 6.4 6.6 6.7 6.7
6.3 6.1 6.3 6.4 6.3 6.3 6.3 6.3 6.2 6.2 6.2 6.1 6.2 6.2 6.2 6.3 6.3 6.3 6.4 6.5 6.6 6.5
6.3 6.1 6.0 6.1 6.3 6.3 6.2 6.2 6.3 6.3 6.2 6.3 6.2 6.3 6.2 6.2 6.3 6.4 6.6 6.6 6.6 6.6
Wind_Speed
4 3 3 4 4 4 5 6 7 3 4 6 8 7 6 2 2 2 0 2 2 2
2 2 3 2 4 3 3 4 9 9 8 6 5 5 6 4 4 3 1 2 2 3
2 2 3 4 5 5 5 5 6 6 5 4 6 6 5 3 3 3 1 2 3 2
3 1 2 4 4 5 5 6 7 7 7 6 6 4 4 4 3 2 1 1 2 4
2 1 1 1 3 5 5 5 6 7 7 5 5 5 5 4 3 2 1 2 2 5
2 3 4 4 5 5 6 6 6 6 6 6 5 5 5 4 4 3 1 1 1 2
3 3 3 4 4 5 5 6 6 5 6 5 5 5 5 5 4 2 1 1 0 1
3 3 3 4 5 5 5 5 5 6 5 5 5 4 5 4 4 3 2 2 2 2
5 5 5 6 6 6 6 5 5 5 6 5 3 5 6 5 3 3 4 4 2 1
6 6 6 5 6 6 6 5 5 5 5 4 3 5 5 4 3 3 3 4 4 3
6 7 6 6 6 5 4 6 5 6 6 5 4 6 5 4 4 3 1 4 4 4
7 7 7 8 7 5 5 5 5 4 6 6 5 7 6 8 4 3 3 3 4 4
6 8 9 8 8 5 4 5 4 4 4 7 5 7 9 9 3 4 3 3 3 7
5 7 8 7 5 5 5 5 5 5 4 4 6 6 11 12 4 3 3 3 3 3
Wind_Direction
261 263 245 205 183 208 181 193 142 172 142 162 145 148 138 119 118 144 166 256 234 250
310 263 242 187 165 170 186 164 165 172 164 134 140 148 138 152 156 133 183 260 273 250
289 243 202 168 171 152 128 119 111 99 74 94 128 132 122 124 123 134 194 206 216 219
319 329 168 165 156 150 145 161 137 134 138 151 124 113 135 130 124 151 199 262 258 266
325 327 87 150 155 142 130 104 116 121 124 129 129 131 113 106 75 69 8 296 267 260
220 171 165 152 139 123 127 129 129 130 138 140 125 117 102 99 80 66 52 302 277 260
239 210 169 137 129 129 132 127 117 112 118 121 122 113 105 91 85 81 73 51 25 259
215 212 178 153 146 138 135 134 137 129 128 134 136 145 139 140 146 152 227 223 208 235
234 204 197 177 163 152 143 139 142 147 149 147 147 166 176 169 198 226 186 210 197 126
216 211 199 186 164 169 162 150 163 156 151 165 184 201 193 196 179 222 214 184 181 182
212 205 185 178 182 169 158 170 171 174 176 174 199 198 196 223 129 130 155 167 171 174
213 201 187 191 182 174 163 174 184 177 175 184 204 201 210 140 137 149 171 174 176 182
226 200 196 194 179 165 165 179 164 163 183 198 193 206 202 160 151 179 171 182 190 208
242 223 208 171 164 160 164 156 167 175 180 202 208 207 206 182 164 186 183 190 192 204